Poplar Bluff, MO

1:03 AM CDT on March 26, 2017 (GMT -0500)
Poplar Bluff Municipal

Weather History for KPOF - May, 2015

Change the Weather History Date:

Saturday, May 16, 2015

  Actual Average Record
Temperature  
Mean Temperature 72 °F -  
Max Temperature 75 °F 80 °F 95 °F (1944)
Min Temperature 68 °F 55 °F 38 °F (1926)
Cooling Degree Days 6    
Growing Degree Days 22 (Base 50)    
Moisture  
Dew Point 68 °F    
Average Humidity 89    
Maximum Humidity 93    
Minimum Humidity 82    
Precipitation  
Precipitation 0.48 in - - ()
Sea Level Pressure  
Sea Level Pressure 30.00 in    
Wind  
Wind Speed 8 mph (SE)    
Max Wind Speed 14 mph    
Max Gust Speed 22 mph    
Visibility 9 miles    
Events Rain , Thunderstorm    
Averages and records for this station are not official NWS values.
T = Trace of Precipitation, MM = Missing Value Source: NWS Daily Summary

Daily Weather History Graph

Daily Weather History Graph

Search for Another Location

Airport or City:

Trip Planner

Search our weather history database for the weather conditions in past years. The results will help you decide how hot, cold, wet, or windy it might be!

Date:

Astronomy

May. 16, 2015 Rise Set
Actual Time 5:53 AM CDT 8:02 PM CDT
Civil Twilight 5:24 AM CDT 8:31 PM CDT
Nautical Twilight 4:48 AM CDT 9:07 PM CDT
Astronomical Twilight 4:10 AM CDT 9:45 PM CDT
Moon 4:56 AM CDT (5/16) 6:33 PM CDT (5/16)
Length of Visible Light 15h 07m
Length of Day
14h 09m
Waning Crescent, 3% of the Moon is Illuminated
May 16
Waning Crescent
May 17
New
May 25
First Quarter
Jun 2
Full
Jun 9
Last Quarter

Hourly Weather History & Observations

Time (CDT) Temp. Dew Point Humidity Pressure Visibility Wind Dir Wind Speed Gust Speed Precip Events Conditions
12:53 AM 69.1 °F 66.0 °F 90% 30.01 in 10.0 mi South 8.1 mph - N/A   Clear
1:53 AM 69.1 °F 66.0 °F 90% 30.01 in 10.0 mi South 8.1 mph - N/A   Partly Cloudy
2:53 AM 68.0 °F 66.0 °F 93% 30.01 in 10.0 mi SSE 6.9 mph - N/A   Overcast
3:39 AM 68.0 °F 66.0 °F 93% 30.01 in 10.0 mi South 5.8 mph - N/A   Mostly Cloudy
3:53 AM 68.0 °F 66.0 °F 93% 30.00 in 10.0 mi South 5.8 mph - N/A   Overcast
4:06 AM 68.0 °F 66.0 °F 93% 30.01 in 10.0 mi South 8.1 mph - N/A   Overcast
4:35 AM 68.0 °F 66.0 °F 93% 30.01 in 8.0 mi South 6.9 mph - 0.01 in Rain Light Rain
4:53 AM 68.0 °F 66.0 °F 93% 30.00 in 10.0 mi South 6.9 mph - 0.01 in   Overcast
5:45 AM 68.0 °F 66.0 °F 93% 30.02 in 10.0 mi South 4.6 mph - N/A   Mostly Cloudy
5:53 AM 68.0 °F 66.0 °F 93% 30.01 in 10.0 mi South 5.8 mph - 0.00 in Rain Light Rain
6:53 AM 68.0 °F 66.0 °F 93% 30.03 in 7.0 mi SSE 5.8 mph - 0.00 in   Overcast
7:03 AM 68.0 °F 66.0 °F 93% 30.04 in 7.0 mi SSE 5.8 mph - 0.00 in Rain Light Rain
7:23 AM 69.1 °F 66.0 °F 90% 30.04 in 7.0 mi South 4.6 mph - 0.00 in Rain Light Rain
7:53 AM 69.1 °F 66.0 °F 90% 30.03 in 9.0 mi SSE 5.8 mph - 0.00 in Rain Light Rain
8:45 AM 69.1 °F 66.9 °F 93% 30.05 in 10.0 mi SSE 8.1 mph - 0.01 in Rain Light Rain
8:53 AM 70.0 °F 66.9 °F 90% 30.04 in 9.0 mi SSE 8.1 mph - 0.01 in Rain Light Rain
9:53 AM 70.0 °F 66.9 °F 90% 30.04 in 10.0 mi SSE 4.6 mph - 0.00 in Rain Light Rain
10:53 AM 70.0 °F 66.9 °F 90% 30.04 in 6.0 mi SSE 5.8 mph - 0.04 in Rain Light Rain
11:36 AM 70.0 °F 66.9 °F 90% 30.04 in 5.0 mi SE 8.1 mph - 0.09 in Rain Rain
11:45 AM 70.0 °F 66.9 °F 90% 30.03 in 6.0 mi SSE 6.9 mph - 0.11 in Rain Light Rain
11:53 AM 70.0 °F 68.0 °F 93% 30.02 in 10.0 mi SE 6.9 mph - 0.11 in Rain Light Rain
12:09 PM 70.0 °F 68.0 °F 93% 30.03 in 10.0 mi SE 8.1 mph - 0.00 in Rain Light Rain
12:53 PM 71.1 °F 68.0 °F 90% 30.01 in 10.0 mi SE 10.4 mph - 0.00 in Rain Light Rain
1:09 PM 71.1 °F 66.9 °F 87% 30.02 in 10.0 mi SE 11.5 mph - 0.00 in Rain Light Rain
1:21 PM 70.0 °F 66.9 °F 90% 30.03 in 1.8 mi SE 8.1 mph - 0.04 in Rain Heavy Rain
1:38 PM 70.0 °F 68.0 °F 93% 30.02 in 1.0 mi SE 9.2 mph - 0.30 in Rain Heavy Rain
1:45 PM 71.1 °F 68.0 °F 90% 30.02 in 4.0 mi SSE 6.9 mph - 0.31 in Rain Heavy Rain
1:53 PM 71.1 °F 68.0 °F 90% 30.01 in 10.0 mi SE 9.2 mph - 0.31 in Rain Light Rain
2:08 PM 71.1 °F 68.0 °F 90% 30.01 in 10.0 mi ESE 8.1 mph - 0.00 in Rain Light Rain
2:18 PM 71.1 °F 68.0 °F 90% 30.01 in 10.0 mi ESE 6.9 mph - 0.00 in Rain Light Rain
2:53 PM 71.1 °F 68.0 °F 90% 30.00 in 10.0 mi ESE 5.8 mph - 0.00 in Rain Light Rain
3:53 PM 75.0 °F 70.0 °F 84% 29.96 in 10.0 mi ESE 8.1 mph - 0.00 in Rain Light Rain
4:01 PM 75.0 °F 70.0 °F 84% 29.96 in 10.0 mi ESE 8.1 mph - 0.00 in Rain Light Rain
4:27 PM 75.2 °F 69.8 °F 83% 29.96 in 10.0 mi SE 6.9 mph - N/A Rain Light Rain
4:34 PM 75.9 °F 70.0 °F 82% 29.96 in 10.0 mi SE 6.9 mph - 0.00 in Rain Light Rain
4:53 PM 75.0 °F 70.0 °F 84% 29.95 in 10.0 mi East 6.9 mph - 0.00 in   Overcast
5:12 PM 75.0 °F 70.0 °F 84% 29.96 in 10.0 mi ESE 9.2 mph - 0.00 in Rain Light Rain
5:28 PM 73.9 °F 69.1 °F 85% 29.96 in 10.0 mi ESE 6.9 mph - 0.00 in Rain Light Rain
5:53 PM 75.0 °F 70.0 °F 84% 29.96 in 10.0 mi ESE 10.4 mph - 0.00 in Rain Light Rain
6:21 PM 75.0 °F 70.0 °F 84% 29.95 in 10.0 mi ESE 8.1 mph - 0.00 in Rain Light Rain
6:36 PM 75.0 °F 70.0 °F 84% 29.95 in 10.0 mi East 6.9 mph - 0.00 in Rain Light Rain
6:49 PM 75.2 °F 71.6 °F 89% 29.95 in 10.0 mi ESE 10.4 mph - 0.00 in Rain Light Rain
6:53 PM 75.0 °F 71.1 °F 87% 29.94 in 10.0 mi ESE 13.8 mph 21.9 mph 0.00 in Rain Light Rain
7:15 PM 73.9 °F 69.1 °F 85% 29.95 in 10.0 mi SSE 13.8 mph 20.7 mph 0.00 in Rain Light Rain
7:23 PM 73.9 °F 69.1 °F 85% 29.96 in 10.0 mi SSE 12.7 mph 20.7 mph 0.00 in Rain , Thunderstorm Light Rain
7:50 PM 73.4 °F 69.8 °F 88% 29.97 in 10.0 mi SSE 11.5 mph - 0.00 in Rain Light Rain
7:53 PM 73.9 °F 69.1 °F 85% 29.96 in 10.0 mi SSE 10.4 mph - 0.00 in Rain Light Rain
8:53 PM 73.0 °F 68.0 °F 84% 29.97 in 10.0 mi SSE 11.5 mph - 0.00 in Rain Light Rain
9:02 PM 73.0 °F 68.0 °F 84% 29.98 in 10.0 mi SSE 13.8 mph 19.6 mph 0.00 in Rain Light Rain
9:26 PM 72.0 °F 69.1 °F 91% 29.99 in 10.0 mi SSE 6.9 mph - 0.00 in Rain Light Rain
9:53 PM 72.0 °F 68.0 °F 87% 29.99 in 10.0 mi SE 8.1 mph - 0.00 in Rain Light Rain
10:53 PM 71.1 °F 66.9 °F 87% 29.98 in 10.0 mi South 6.9 mph - 0.00 in Rain Light Rain
11:53 PM 71.1 °F 66.9 °F 87% 29.95 in 10.0 mi South 8.1 mph - 0.00 in Rain Light Rain